| time (UTC) | temp C | wind direction | speed KPH | gust KPH | rain 1hr cm | rain 24hr cm | rain mn cm | humidity % | barometer mb |
| 20260510104523 | 11 | 0.0 | 0.0 | 0.00 | 0.00 | 0.00 | 92 | 1031.0 | |
| 20260510103026 | 11 | 0.0 | 0.0 | 0.00 | 0.00 | 0.00 | 91 | 1030.9 | |
| 20260510101521 | 12 | 0.0 | 0.0 | 0.00 | 0.00 | 0.00 | 90 | 1030.7 | |
| 20260510100031 | 12 | 0.0 | 3.2 | 0.00 | 0.00 | 0.00 | 90 | 1030.7 | |
| 20260510094526 | 13 | 0.0 | 3.2 | 0.00 | 0.00 | 0.00 | 89 | 1030.8 | |
| 20260510093020 | 13 | 0.0 | 1.6 | 0.00 | 0.00 | 0.00 | 90 | 1030.7 | |
| 20260510091524 | 13 | 0.0 | 1.6 | 0.00 | 0.00 | 0.00 | 90 | 1030.6 | |
| 20260510090025 | 13 | 0.0 | 0.0 | 0.00 | 0.00 | 0.00 | 89 | 1030.5 | |
| 20260510084519 | 13 | 0.0 | 0.0 | 0.00 | 0.00 | 0.00 | 89 | 1030.4 | |
| 20260510083023 | 13 | 0.0 | 1.6 | 0.00 | 0.00 | 0.00 | 89 | 1030.4 | |
| 20260510081518 | 13 | 0.0 | 1.6 | 0.00 | 0.00 | 0.00 | 88 | 1030.2 | |
| 20260510080026 | 13 | 0.0 | 1.6 | 0.00 | 0.00 | 0.00 | 88 | 1030.0 | |
| 20260510074517 | 13 | 0.0 | 1.6 | 0.00 | 0.00 | 0.00 | 88 | 1029.9 | |
| 20260510073016 | 13 | 0.0 | 1.6 | 0.00 | 0.00 | 0.00 | 88 | 1029.7 | |
| 20260510071521 | 13 | 0.0 | 3.2 | 0.00 | 0.00 | 0.00 | 87 | 1029.7 | |
| 20260510070016 | 14 | 0.0 | 3.2 | 0.00 | 0.00 | 0.00 | 86 | 1029.7 | |
| 20260510064519 | 14 | 0.0 | 4.8 | 0.00 | 0.00 | 0.00 | 85 | 1029.6 | |
| 20260510063014 | 14 | 0.0 | 6.4 | 0.00 | 0.00 | 0.00 | 85 | 1029.5 | |
| 20260510061513 | 15 | 1.6 | 8.0 | 0.00 | 0.00 | 0.00 | 83 | 1029.5 | |
| 20260510060013 | 15 | 0.0 | 4.8 | 0.00 | 0.00 | 0.00 | 83 | 1029.5 | |
| 20260510054512 | 15 | 0.0 | 6.4 | 0.00 | 0.00 | 0.00 | 83 | 1029.3 | |
| 20260510053011 | 15 | 1.6 | 6.4 | 0.00 | 0.00 | 0.00 | 84 | 1029.3 | |
| 20260510051511 | 15 | 0.0 | 6.4 | 0.00 | 0.00 | 0.00 | 80 | 1029.3 | |
| 20260510050014 | 15 | 0.0 | 6.4 | 0.00 | 0.00 | 0.00 | 78 | 1029.1 | |
| 20260510044511 | 16 | 1.6 | 8.0 | 0.00 | 0.00 | 0.00 | 76 | 1029.0 | |
| 20260510043009 | 16 | 0.0 | 1.6 | 0.00 | 0.00 | 0.00 | 73 | 1029.1 | |
| 20260510041509 | 16 | 0.0 | 3.2 | 0.00 | 0.00 | 0.00 | 71 | 1029.1 | |
| 20260510040010 | 16 | 0.0 | 3.2 | 0.00 | 0.00 | 0.00 | 72 | 1029.1 | |
| 20260510034504 | 15 | 0.0 | 3.2 | 0.00 | 0.00 | 0.00 | 75 | 1029.2 | |
| 20260510033004 | 15 | 0.0 | 3.2 | 0.00 | 0.00 | 0.00 | 74 | 1029.3 | |
| 20260510031503 | 15 | 0.0 | 4.8 | 0.00 | 0.00 | 0.00 | 73 | 1029.4 | |
| 20260510030003 | 15 | 0.0 | 4.8 | 0.00 | 0.00 | 0.00 | 74 | 1029.5 | |
| 20260510024502 | 15 | 0.0 | 6.4 | 0.00 | 0.00 | 0.00 | 74 | 1029.7 | |
| 20260510023002 | 15 | 0.0 | 9.7 | 0.00 | 0.00 | 0.00 | 76 | 1029.9 | |
| 20260510021601 | 16 | 0.0 | 4.8 | 0.00 | 0.00 | 0.00 | 74 | 1030.1 | |
| 20260510020059 | 16 | 0.0 | 4.8 | 0.00 | 0.00 | 0.00 | 73 | 1030.3 | |
| 20260510014557 | 15 | 0.0 | 4.8 | 0.00 | 0.00 | 0.00 | 72 | 1030.5 | |
| 20260510013056 | 15 | 1.6 | 6.4 | 0.00 | 0.00 | 0.00 | 74 | 1030.6 | |
| 20260510011558 | 15 | 0.0 | 4.8 | 0.00 | 0.00 | 0.00 | 74 | 1030.6 | |
| 20260510010058 | 15 | 0.0 | 3.2 | 0.00 | 0.00 | 0.00 | 75 | 1030.7 | |
| 20260510004548 | 15 | 0.0 | 1.6 | 0.00 | 0.00 | 0.00 | 75 | 1030.7 | |
| 20260510003047 | 14 | 1.6 | 6.4 | 0.00 | 0.00 | 0.00 | 83 | 1030.8 | |
| 20260510001545 | 13 | 0.0 | 0.0 | 0.00 | 0.00 | 0.00 | 89 | 1030.9 | |
| 20260510000058 | 13 | 0.0 | 1.6 | 0.00 | 0.00 | 0.00 | 94 | 1030.9 | |
| 20260509234548 | 12 | 0.0 | 3.2 | 0.00 | 0.00 | 0.00 | 96 | 1030.8 | |
| 20260509233035 | 12 | 0.0 | 3.2 | 0.00 | 0.00 | 0.00 | 97 | 1030.8 | |
| 20260509231533 | 12 | 1.6 | 3.2 | 0.00 | 0.00 | 0.00 | 97 | 1030.8 | |
| 20260509230036 | 11 | 0.0 | 3.2 | 0.00 | 0.00 | 0.00 | 97 | 1030.9 | |
| 20260509224530 | 11 | 0.0 | 1.6 | 0.00 | 0.00 | 0.00 | 97 | 1030.7 | |
| 20260509223030 | 11 | 0.0 | 1.6 | 0.00 | 0.00 | 0.00 | 97 | 1030.6 | |
| 20260509221528 | 11 | 0.0 | 0.0 | 0.00 | 0.00 | 0.00 | 97 | 1030.6 | |
| 20260509220027 | 11 | 0.0 | 1.6 | 0.00 | 0.00 | 0.00 | 97 | 1030.3 | |
| 20260509214625 | 11 | 0.0 | 0.0 | 0.00 | 0.00 | 0.00 | 97 | 1030.1 | |
| 20260509213024 | 11 | 0.0 | 0.0 | 0.00 | 0.00 | 0.00 | 97 | 1029.8 | |
| 20260509211520 | 11 | 0.0 | 1.6 | 0.00 | 0.00 | 0.00 | 97 | 1029.7 | |
| 20260509210021 | 10 | 0.0 | 0.0 | 0.00 | 0.00 | 0.00 | 97 | 1029.7 | |
| 20260509204524 | 10 | 0.0 | 0.0 | 0.00 | 0.00 | 0.00 | 97 | 1029.5 | |
| 20260509203016 | 10 | 0.0 | 0.0 | 0.00 | 0.00 | 0.00 | 96 | 1029.3 | |
| 20260509201513 | 10 | 0.0 | 0.0 | 0.00 | 0.00 | 0.00 | 96 | 1029.2 | |
| 20260509200011 | 10 | 0.0 | 0.0 | 0.00 | 0.00 | 0.00 | 96 | 1029.1 | |
| 20260509194509 | 10 | 0.0 | 0.0 | 0.00 | 0.00 | 0.00 | 96 | 1029.0 | |
| 20260509193006 | 11 | 0.0 | 1.6 | 0.00 | 0.00 | 0.00 | 96 | 1028.7 | |
| 20260509191505 | 11 | 0.0 | 0.0 | 0.00 | 0.00 | 0.00 | 96 | 1028.4 | |
| 20260509190001 | 11 | 0.0 | 3.2 | 0.00 | 0.00 | 0.00 | 96 | 1028.4 | |
| 20260509184607 | 11 | 0.0 | 1.6 | 0.00 | 0.00 | 0.00 | 96 | 1028.3 | |
| 20260509183100 | 11 | 1.6 | 3.2 | 0.00 | 0.00 | 0.00 | 96 | 1028.2 | |
| 20260509181621 | 11 | 0.0 | 0.0 | 0.00 | 0.00 | 0.00 | 96 | 1028.1 | |
| 20260509174559 | 11 | 0.0 | 1.6 | 0.00 | 0.00 | 0.00 | 95 | 1028.0 | |
| 20260509173104 | 11 | 0.0 | 0.0 | 0.00 | 0.00 | 0.00 | 95 | 1028.0 | |
| 20260509171555 | 11 | 0.0 | 0.0 | 0.00 | 0.00 | 0.00 | 95 | 1028.1 | |
| 20260509170054 | 11 | 0.0 | 1.6 | 0.00 | 0.00 | 0.00 | 95 | 1028.1 | |
| 20260509164553 | 12 | 0.0 | 0.0 | 0.00 | 0.00 | 0.00 | 95 | 1028.3 | |
| 20260509163052 | 12 | 0.0 | 0.0 | 0.00 | 0.00 | 0.00 | 95 | 1028.2 | |
| 20260509161549 | 12 | 0.0 | 0.0 | 0.00 | 0.00 | 0.00 | 94 | 1028.3 | |
| 20260509160049 | 12 | 0.0 | 0.0 | 0.00 | 0.00 | 0.00 | 94 | 1028.3 | |
| 20260509154548 | 12 | 0.0 | 0.0 | 0.00 | 0.00 | 0.00 | 94 | 1028.3 | |
| 20260509153051 | 12 | 0.0 | 0.0 | 0.00 | 0.00 | 0.00 | 94 | 1028.2 | |
| 20260509151552 | 12 | 0.0 | 0.0 | 0.00 | 0.00 | 0.00 | 94 | 1028.4 | |
| 20260509150046 | 12 | 0.0 | 0.0 | 0.00 | 0.00 | 0.00 | 94 | 1028.4 | |
| 20260509144601 | 12 | 0.0 | 0.0 | 0.00 | 0.00 | 0.00 | 94 | 1028.4 | |
| 20260509143049 | 12 | 0.0 | 0.0 | 0.00 | 0.00 | 0.00 | 94 | 1028.4 | |
| 20260509141542 | 12 | 0.0 | 0.0 | 0.00 | 0.00 | 0.00 | 93 | 1028.5 | |
| 20260509140040 | 12 | 0.0 | 0.0 | 0.00 | 0.00 | 0.00 | 93 | 1028.4 | |
| 20260509134559 | 12 | 0.0 | 0.0 | 0.00 | 0.00 | 0.00 | 93 | 1028.3 | |
| 20260509133045 | 12 | 0.0 | 0.0 | 0.00 | 0.00 | 0.00 | 94 | 1028.4 | |
| 20260509131539 | 12 | 0.0 | 0.0 | 0.00 | 0.00 | 0.00 | 93 | 1028.3 | |
| 20260509130051 | 12 | 0.0 | 0.0 | 0.00 | 0.00 | 0.00 | 93 | 1028.3 | |
| 20260509124538 | 12 | 0.0 | 0.0 | 0.00 | 0.00 | 0.00 | 92 | 1028.3 | |
| 20260509123040 | 12 | 0.0 | 0.0 | 0.00 | 0.00 | 0.00 | 92 | 1028.5 | |
| 20260509121544 | 12 | 0.0 | 3.2 | 0.00 | 0.00 | 0.00 | 91 | 1028.4 | |
| 20260509120035 | 12 | 0.0 | 0.0 | 0.00 | 0.00 | 0.00 | 92 | 1028.3 | |
| 20260509114537 | 12 | 0.0 | 0.0 | 0.00 | 0.00 | 0.00 | 93 | 1028.3 | |
| 20260509113037 | 12 | 0.0 | 0.0 | 0.00 | 0.00 | 0.00 | 93 | 1028.1 | |
| 20260509111531 | 12 | 0.0 | 0.0 | 0.00 | 0.00 | 0.00 | 93 | 1028.0 | |
| 20260509110034 | 12 | 0.0 | 0.0 | 0.00 | 0.00 | 0.00 | 93 | 1028.0 |